Погода в Задне-Пилеве

Россия / Рязанская область     55°04′03″N   40°11′11″E
темп.,
°C
ветер,
м/с
пор.,
м/с
влажн.,
%
обл.,
%
осадки,
мм/ч
давл.,
гПа
погр.,
м
18 апреля, вс
вс1800:00+9всв5125822 0.0 1019500
03:00+7всв41165100 0.0 1019461
06:00+6в3874100 0.7 1019517
09:00+5всв3891100 5.5 1020513
12:00+6всв3688100 1.1 1021390
15:00+7всв478060 1.1 1021585
18:00+8всв5107958 0.0 1021589
21:00+6в41187100 0.1 1022582
19 апреля, пн
пн1900:00+7всв51179100 0.0 1022518
03:00+6всв51287100 0.1 1022535
06:00+4всв51289100 0.0 1023512
09:00+5св51187100 0.3 1023578
12:00+3всв51295100 2.4 1024760
15:00+7всв51082100 3.2 10231059
18:00+5всв51181100 1.5 10241093
21:00+4всв51173100 1.8 1024832
20 апреля, вт
вт2000:00+3всв51286100 0.2 1023803
03:00+3в51297100 4.3 1023847
06:00+2в41397100 5.3 1022677
09:00+2в51297100 7.8 1023672
12:00+3в51297100 1.3 1022792
15:00+4в51395100 2.3 1021864
18:00+6вюв61580100 0.1 10181160
21:00+6в71876100 0.4 10141263
21 апреля, ср
ср2100:00+4в92091100 6.3 10091174
03:00+5вюв81991100 11.8 10061277
06:00+6вюв81791100 0.1 1004929
09:00+6вюв71692100 2.8 10031116
12:00+8юв61395100 1.4 10031232
15:00+4ююз41293100 3.1 1006639
18:00+5юз61178100 0.0 10101096
21:00+5юз51078100 0.1 1013967
22 апреля, чт
чт2200:00+5ююз412865 0.0 1014513
03:00+3ююз310935 0.0 1016294
06:00+3ю3119376 0.0 1017322
09:00+8ююз497499 0.0 10181036
12:00+10ююз487155 0.1 10191177
15:00+12юз476289 0.4 10191465
18:00+11ююз36725 0.8 1020390
21:00+7ююв268536 0.9 1020109